Regional Weather Roundup
Issued by NWS Cleveland, OH

Home | Current Version | Previous Version | Graphics & Text | Print | Product List | Glossary Off
Versions: 1 2 3 4 5 6 7 8 9 10 11 12 13 14 15 16 17 18 19 20 21 22 23 24 25 26 27 28 29 30 31 32 33 34 35 36 37 38 39 40 41 42 43 44 45 46 47 48 49 50

000
ASUS41 KCLE 010110
RWRCLE
OHIO REGIONAL WEATHER ROUNDUP
NATIONAL WEATHER SERVICE CLEVELAND, OH
900 PM EDT THU JUL 31 2014

NOTE: "FAIR" INDICATES FEW OR NO CLOUDS BELOW 12,000 FEET WITH NO
SIGNIFICANT WEATHER AND/OR OBSTRUCTIONS TO VISIBILITY.

OHZ001>008-015>018-024>027-034-035-043-044-010200-
   NORTHWEST OHIO

CITY           SKY/WX    TMP DP  RH WIND       PRES   REMARKS
DEFIANCE       FAIR      69  63  81 S3        30.06R
FINDLAY        FAIR      72  59  63 SW5       30.05S
TOLEDO EXPRESS FAIR      67  62  84 CALM      30.04S
TOLEDO EXEC    FAIR      74  60  61 SW5       30.05R
LIMA           FAIR      74  59  59 SW5       30.07S
$$

OHZ009>014-019>023-028>033-038-089-010200-
   NORTHEAST OHIO

CITY           SKY/WX    TMP DP  RH WIND       PRES   REMARKS
CLE-HOPKINS    FAIR      72  57  59 S7        30.08S
CLE-LAKEFRONT  FAIR      75  55  49 S6        30.04S
CUY CO. ARPT   PTCLDY    72  57  60 S6        30.08R
LORAIN-ELYRIA  FAIR      73  60  63 S3        30.07R
ASHTABULA      FAIR      63  58  83 CALM      30.09S
AKRON-CANTON   FAIR      71  55  56 S3        30.09S
WOOSTER        LGT RAIN  66  59  78 CALM      30.10R
MANSFIELD      FAIR      68  58  70 S3        30.10R
YOUNGSTOWN     FAIR      64  57  78 CALM      30.10R
$$

OHZ042-051>053-060>062-070>072-077>081-010200-
  SOUTHWEST OHIO

CITY           SKY/WX    TMP DP  RH WIND       PRES   REMARKS
CINC-COVINGTON MOCLDY    73  60  63 CALM      30.08S
CINC-LUNKEN    CLOUDY    73  62  68 S3        30.07R
HAMILTON       FAIR      69  63  81 CALM      30.08R
DAYTON         FAIR      74  59  59 SW3       30.09S
WRIGHT-PAT AFB FAIR      72  61  69 SW3       30.08R
DAYTON GENERAL FAIR      76  59  55 CALM      30.08S
WILMINGTON     CLOUDY    71  61  70 CALM      30.09R
$$

OHZ036-037-039>041-045>050-054>059-063>069-073>076-082>088-010200-
  CENTRAL AND SOUTHEAST OHIO

CITY           SKY/WX    TMP DP  RH WIND       PRES   REMARKS
COLUMBUS       FAIR      78  59  51 S3        30.08R
OSU AIRPORT    FAIR      76  59  55 SW3       30.08R
BOLTON FIELD   FAIR      71  64  80 CALM      30.09R
RICKENBACK AFB FAIR      74  61  61 S3        30.07S
NEWARK         FAIR      69  63  81 CALM      30.09R
MARION         FAIR      71  58  63 CALM      30.08R
LANCASTER      FAIR      68  64  87 CALM      30.09R
ZANESVILLE     FAIR      72  61  68 S3        30.10R
NEW PHILLY     FAIR      68  63  84 SE5       30.10R
$$


USA.gov is the U.S. government's official web portal to all federal, state and local government web resources and services.